(°C)
21°
21°
21°
21°
21°
20°
19°
(°C)
22°
22°
22°
22°
22°
21°
21°
W
W
WSW
WSW
W
W
WNW
(km/h)
11-18
10-18
10-17
9-15
7-13
6-11
4-9
(mm)
0
0
0
0
0
0
0
(%)
0
0
0
0
0
0
0

Sonnenhöhe

/ 43°
sun-icon
UV 6
06:44
18:29
Zunehmender Mond (136°)
17:03
03:12

METAR für San Diego (KSAN)

Zeit Bedingungen Temperatur/
Taupunkt
Wind Sichtweite Wetter Wolken Druck Änderung Roh
MVFR 20.6°C / 16.1°C 210º 7kt >10km - Broken Clouds 1500ft 1016 - KSAN 062051Z 21007KT 7SM BKN015 21/16 A3002 RMK AO2 SLP166 T02060161 58013
MVFR 21.1°C / 16.1°C 220º 7kt 9700m Mist Vertical Visibility of 0ft. - KSAN 062025Z 22007KT 6SM BR BKN015 21/16 A3003 RMK AO2 T02110161
MVFR 20.6°C / 16.1°C 200º 5kt 9700m Mist Vertical Visibility of 0ft. 1017 - KSAN 061951Z 20005KT 6SM BR OVC014 21/16 A3004 RMK AO2 SLP172 T02060161
MVFR 20.6°C / 16.1°C 220º 4kt >10km - Overcast 1100ft 1017 - KSAN 061851Z 22004KT 10SM OVC011 21/16 A3005 RMK AO2 SLP177 T02060161
MVFR 20°C / 16.1°C 240º 6kt >10km - Overcast 1000ft - KSAN 061813Z 24006KT 10SM OVC010 20/16 A3006 RMK AO2 T02000161
IFR 19.4°C / 16.7°C variable 5kt >10km - Overcast 900ft 1017 - KSAN 061751Z VRB05KT 9SM OVC009 19/17 A3006 RMK AO2 SLP179 60000 T01940167 10200 20183 51007
IFR 19.4°C / 16.7°C 190º 5kt >10km - Overcast 800ft 1017 - KSAN 061651Z 19005KT 9SM OVC008 19/17 A3006 RMK AO2 SLP178 T01940167
IFR 18.9°C / 16.7°C 200º 5kt 9700m Mist Vertical Visibility of 0ft. 1017 - KSAN 061551Z 20005KT 6SM BR OVC009 19/17 A3005 RMK AO2 SLP177 T01890167
IFR 18.9°C / 17.2°C variable 3kt 8000m Mist 0.13mm precipitation Overcast 800ft 1017 - KSAN 061451Z VRB03KT 5SM BR OVC008 19/17 A3004 RMK AO2 DZE06 SLP172 CIG 006V009 P0000 60000 T01890172 51012
IFR 18.3°C / 17.2°C variable 0kt 6400m Light Drizzle Mist 0.13mm precipitation Overcast 700ft 1016 - KSAN 061351Z 00000KT 4SM -DZ BR OVC007 18/17 A3003 RMK AO2 DZB19 SLP168 CIG 005V010 P0000 T01830172
IFR 18.3°C / 17.2°C variable 0kt 6400m Light Drizzle Mist 0.13mm precipitation Overcast 700ft - KSAN 061341Z 00000KT 4SM -DZ BR OVC007 18/17 A3003 RMK AO2 DZB19 P0000 T01830172
IFR 18.3°C / 16.7°C 280º 3kt 6400m Mist Vertical Visibility of 0ft. 1016 - KSAN 061251Z 28003KT 4SM BR OVC006 18/17 A3002 RMK AO2 SLP166 T01830167
IFR 18.3°C / 16.7°C 270º 3kt 6400m Mist Vertical Visibility of 0ft. 1016 - KSAN 061151Z 27003KT 4SM BR OVC006 18/17 A3001 RMK AO2 SLP160 T01830167 10189 20183 55005
IFR 18.3°C / 16.7°C 240º 3kt 6400m Mist Vertical Visibility of 0ft. 1015 - KSAN 061051Z 24003KT 4SM BR OVC005 18/17 A3000 RMK AO2 SLP159 T01830167
IFR 18.3°C / 16.7°C 240º 4kt 6400m Mist Vertical Visibility of 0ft. - KSAN 061037Z 24004KT 4SM BR OVC006 18/17 A3000 RMK AO2 T01830167
IFR 18.9°C / 16.7°C variable 0kt 8000m Mist Vertical Visibility of 0ft. 1016 - KSAN 060951Z 00000KT 5SM BR OVC007 19/17 A3001 RMK AO2 SLP163 T01890167
IFR 18.9°C / 16.1°C 220º 3kt >10km - Overcast 700ft 1016 - KSAN 060851Z 22003KT 8SM OVC007 19/16 A3002 RMK AO2 SLP165 T01890161 58003
IFR 18.9°C / 16.1°C 220º 5kt >10km - Overcast 800ft 1016 - KSAN 060751Z 22005KT 8SM OVC008 19/16 A3003 RMK AO2 SLP168 T01890161 402110183
IFR 18.9°C / 16.7°C variable 0kt >10km - Overcast 800ft 1016 - KSAN 060651Z 00000KT 8SM OVC008 19/17 A3003 RMK AO2 SLP167 T01890167
IFR 18.9°C / 16.1°C 190º 5kt >10km - Overcast 900ft 1016 - KSAN 060551Z 19005KT 9SM OVC009 19/16 A3003 RMK AO2 SLP168 T01890161 10206 20189 53008
IFR 18.9°C / 16.1°C 200º 6kt >10km - Overcast 800ft 1016 - KSAN 060451Z 20006KT 9SM OVC008 19/16 A3002 RMK AO2 SLP166 T01890161
IFR 19.4°C / 16.7°C 170º 6kt >10km - Overcast 900ft 1016 - KSAN 060351Z 17006KT 7SM OVC009 19/17 A3001 RMK AO2 SLP160 T01940167
MVFR 19.4°C / 16.7°C 180º 5kt >10km - Overcast 1100ft 1015 - KSAN 060251Z 18005KT 8SM OVC011 19/17 A2999 RMK AO2 SLP156 T01940167 53013
MVFR 19.4°C / 16.7°C 190º 6kt >10km - Overcast 1100ft - KSAN 060215Z 19006KT 8SM OVC011 19/17 A2998 RMK AO2 T01940167

MVFR

20.6°C / 16.1°C

[Mehr]
Wind 210º 7kt
Sichtweite >10km
Wetter -
Wolken Broken Clouds 1500ft
Druck 1016
Änderung -
Roh KSAN 062051Z 21007KT 7SM BKN015 21/16 A3002 RMK AO2 SLP166 T02060161 58013

MVFR

21.1°C / 16.1°C

[Mehr]
Wind 220º 7kt
Sichtweite 9700m
Wetter Mist
Wolken Vertical Visibility of 0ft.
Druck
Änderung -
Roh KSAN 062025Z 22007KT 6SM BR BKN015 21/16 A3003 RMK AO2 T02110161

MVFR

20.6°C / 16.1°C

[Mehr]
Wind 200º 5kt
Sichtweite 9700m
Wetter Mist
Wolken Vertical Visibility of 0ft.
Druck 1017
Änderung -
Roh KSAN 061951Z 20005KT 6SM BR OVC014 21/16 A3004 RMK AO2 SLP172 T02060161

MVFR

20.6°C / 16.1°C

[Mehr]
Wind 220º 4kt
Sichtweite >10km
Wetter -
Wolken Overcast 1100ft
Druck 1017
Änderung -
Roh KSAN 061851Z 22004KT 10SM OVC011 21/16 A3005 RMK AO2 SLP177 T02060161

MVFR

20°C / 16.1°C

[Mehr]
Wind 240º 6kt
Sichtweite >10km
Wetter -
Wolken Overcast 1000ft
Druck
Änderung -
Roh KSAN 061813Z 24006KT 10SM OVC010 20/16 A3006 RMK AO2 T02000161

IFR

19.4°C / 16.7°C

[Mehr]
Wind variable 5kt
Sichtweite >10km
Wetter -
Wolken Overcast 900ft
Druck 1017
Änderung -
Roh KSAN 061751Z VRB05KT 9SM OVC009 19/17 A3006 RMK AO2 SLP179 60000 T01940167 10200 20183 51007

IFR

19.4°C / 16.7°C

[Mehr]
Wind 190º 5kt
Sichtweite >10km
Wetter -
Wolken Overcast 800ft
Druck 1017
Änderung -
Roh KSAN 061651Z 19005KT 9SM OVC008 19/17 A3006 RMK AO2 SLP178 T01940167

IFR

18.9°C / 16.7°C

[Mehr]
Wind 200º 5kt
Sichtweite 9700m
Wetter Mist
Wolken Vertical Visibility of 0ft.
Druck 1017
Änderung -
Roh KSAN 061551Z 20005KT 6SM BR OVC009 19/17 A3005 RMK AO2 SLP177 T01890167

IFR

18.9°C / 17.2°C

[Mehr]
Wind variable 3kt
Sichtweite 8000m
Wetter Mist 0.13mm precipitation
Wolken Overcast 800ft
Druck 1017
Änderung -
Roh KSAN 061451Z VRB03KT 5SM BR OVC008 19/17 A3004 RMK AO2 DZE06 SLP172 CIG 006V009 P0000 60000 T01890172 51012

IFR

18.3°C / 17.2°C

[Mehr]
Wind variable 0kt
Sichtweite 6400m
Wetter Light Drizzle Mist 0.13mm precipitation
Wolken Overcast 700ft
Druck 1016
Änderung -
Roh KSAN 061351Z 00000KT 4SM -DZ BR OVC007 18/17 A3003 RMK AO2 DZB19 SLP168 CIG 005V010 P0000 T01830172

IFR

18.3°C / 17.2°C

[Mehr]
Wind variable 0kt
Sichtweite 6400m
Wetter Light Drizzle Mist 0.13mm precipitation
Wolken Overcast 700ft
Druck
Änderung -
Roh KSAN 061341Z 00000KT 4SM -DZ BR OVC007 18/17 A3003 RMK AO2 DZB19 P0000 T01830172

IFR

18.3°C / 16.7°C

[Mehr]
Wind 280º 3kt
Sichtweite 6400m
Wetter Mist
Wolken Vertical Visibility of 0ft.
Druck 1016
Änderung -
Roh KSAN 061251Z 28003KT 4SM BR OVC006 18/17 A3002 RMK AO2 SLP166 T01830167

IFR

18.3°C / 16.7°C

[Mehr]
Wind 270º 3kt
Sichtweite 6400m
Wetter Mist
Wolken Vertical Visibility of 0ft.
Druck 1016
Änderung -
Roh KSAN 061151Z 27003KT 4SM BR OVC006 18/17 A3001 RMK AO2 SLP160 T01830167 10189 20183 55005

IFR

18.3°C / 16.7°C

[Mehr]
Wind 240º 3kt
Sichtweite 6400m
Wetter Mist
Wolken Vertical Visibility of 0ft.
Druck 1015
Änderung -
Roh KSAN 061051Z 24003KT 4SM BR OVC005 18/17 A3000 RMK AO2 SLP159 T01830167

IFR

18.3°C / 16.7°C

[Mehr]
Wind 240º 4kt
Sichtweite 6400m
Wetter Mist
Wolken Vertical Visibility of 0ft.
Druck
Änderung -
Roh KSAN 061037Z 24004KT 4SM BR OVC006 18/17 A3000 RMK AO2 T01830167

IFR

18.9°C / 16.7°C

[Mehr]
Wind variable 0kt
Sichtweite 8000m
Wetter Mist
Wolken Vertical Visibility of 0ft.
Druck 1016
Änderung -
Roh KSAN 060951Z 00000KT 5SM BR OVC007 19/17 A3001 RMK AO2 SLP163 T01890167

IFR

18.9°C / 16.1°C

[Mehr]
Wind 220º 3kt
Sichtweite >10km
Wetter -
Wolken Overcast 700ft
Druck 1016
Änderung -
Roh KSAN 060851Z 22003KT 8SM OVC007 19/16 A3002 RMK AO2 SLP165 T01890161 58003

IFR

18.9°C / 16.1°C

[Mehr]
Wind 220º 5kt
Sichtweite >10km
Wetter -
Wolken Overcast 800ft
Druck 1016
Änderung -
Roh KSAN 060751Z 22005KT 8SM OVC008 19/16 A3003 RMK AO2 SLP168 T01890161 402110183

IFR

18.9°C / 16.7°C

[Mehr]
Wind variable 0kt
Sichtweite >10km
Wetter -
Wolken Overcast 800ft
Druck 1016
Änderung -
Roh KSAN 060651Z 00000KT 8SM OVC008 19/17 A3003 RMK AO2 SLP167 T01890167

IFR

18.9°C / 16.1°C

[Mehr]
Wind 190º 5kt
Sichtweite >10km
Wetter -
Wolken Overcast 900ft
Druck 1016
Änderung -
Roh KSAN 060551Z 19005KT 9SM OVC009 19/16 A3003 RMK AO2 SLP168 T01890161 10206 20189 53008

IFR

18.9°C / 16.1°C

[Mehr]
Wind 200º 6kt
Sichtweite >10km
Wetter -
Wolken Overcast 800ft
Druck 1016
Änderung -
Roh KSAN 060451Z 20006KT 9SM OVC008 19/16 A3002 RMK AO2 SLP166 T01890161

IFR

19.4°C / 16.7°C

[Mehr]
Wind 170º 6kt
Sichtweite >10km
Wetter -
Wolken Overcast 900ft
Druck 1016
Änderung -
Roh KSAN 060351Z 17006KT 7SM OVC009 19/17 A3001 RMK AO2 SLP160 T01940167

MVFR

19.4°C / 16.7°C

[Mehr]
Wind 180º 5kt
Sichtweite >10km
Wetter -
Wolken Overcast 1100ft
Druck 1015
Änderung -
Roh KSAN 060251Z 18005KT 8SM OVC011 19/17 A2999 RMK AO2 SLP156 T01940167 53013

MVFR

19.4°C / 16.7°C

[Mehr]
Wind 190º 6kt
Sichtweite >10km
Wetter -
Wolken Overcast 1100ft
Druck
Änderung -
Roh KSAN 060215Z 19006KT 8SM OVC011 19/17 A2998 RMK AO2 T01940167

TAF für San Diego (KSAN)

From till


From till Wind 200º 5kt. Visibility 9700m. Mist . Overcast 1200ft.
From till Wind 240º 3kt. Visibility 8000m. Mist . Overcast 800ft.
From till Wind variable 0kt. Visibility 6400m. Mist . Overcast 600ft.
From till Wind 250º 4kt. Visibility 10km or more. Overcast 800ft.
From till Wind 260º 5kt. Visibility 10km or more. Broken Clouds 1100ft.
Temporarly from till Scattered Clouds 1200ft.

Roh: KSAN 062024Z 0620/0724 20005KT 6SM BR OVC012 FM070900 24003KT 5SM BR OVC008 FM071300 00000KT 4SM BR OVC006 FM071630 25004KT P6SM OVC008 FM071800 26005KT P6SM BKN011 TEMPO 0721/0724 SCT012

Radar- und Niederschlags-Nowcast für San Diego

Nieselregen
Leicht
Moderat
Stark
Sehr schwer
Hagel

Die Ortsmarkierung zeigt auf San Diego. Diese Animation zeigt das Niederschlagsradar der letzten Stunde, sowie eine 1h Vorhersage. Nieselregen und leichter Schneefall können für das Radar unsichtbar sein. Die Niederschlagsintensität ist farbcodiert von Hellblau bis Orange.

Aktuelle Satellitenbilder für San Diego, Vereinigte Staaten

Die Standortmarkierung ist platziert auf San Diego. [Mehr]

Das Echtzeit-Satellitenbild kombiniert sichtbares Licht während des Tages mit Infrarotstrahlung während der Nacht. Nachts ist das Bild nicht dunkel, da Infrarotstrahlung Temperaturunterschiede erkennen kann. Leider sind niedrige Wolken und Nebel nur schwer von den Bodentemperaturen zu unterscheiden und können daher nachts fast unsichtbar sein. Meteosat-Satellitenbilder für Europa werden alle 5 Minuten in Echtzeit aktualisiert. Die Bilder GOES-16 / GOES-17 (Nord- und Südamerika) und Himawari (Asien) werden alle 10 Minuten aktualisiert.

Zum Anfang